This is the latest recevied weather packets stored in our database for station/object N3DOU-1. If no packets are shown the sender has not sent any weather packets the latest 10 day(s).
| Time | Temp. | Humidity | Pressure | Rain* | Wind** | Luminosity | Snow |
|---|---|---|---|---|---|---|---|
| 1778070385 | 19.44° C | 72% | 1010.3 hPa | 0 mm | - | - | - |
| 1778069483 | 19.44° C | 72% | 1010.1 hPa | 0 mm | - | - | - |
| 1778068585 | 19.44° C | 73% | 1010 hPa | 0 mm | - | - | - |
| 1778067686 | 19.44° C | 74% | 1010 hPa | 0 mm | - | - | - |
| 1778066785 | 18.89° C | 74% | 1009.8 hPa | 0 mm | - | - | - |
| 1778065886 | 18.89° C | 75% | 1009.7 hPa | 0 mm | - | - | - |
| 1778064984 | 18.33° C | 76% | 1009.7 hPa | 0 mm | - | - | - |
| 1778064085 | 18.33° C | 76% | 1009.7 hPa | 0 mm | - | - | - |
| 1778063183 | 18.89° C | 75% | 1009.6 hPa | 0 mm | - | - | - |
| 1778062284 | 18.89° C | 75% | 1009.7 hPa | 0 mm | - | - | - |
| 1778061384 | 18.89° C | 76% | 1009.7 hPa | 0 mm | - | - | - |
| 1778060483 | 18.89° C | 75% | 1009.6 hPa | 0 mm | - | - | - |
| 1778059583 | 18.89° C | 75% | 1009.7 hPa | 0 mm | - | - | - |
| 1778058685 | 18.89° C | 75% | 1009.9 hPa | 0 mm | - | - | - |
| 1778057783 | 18.33° C | 76% | 1009.8 hPa | 0 mm | - | - | - |
| 1778056884 | 18.89° C | 76% | 1009.7 hPa | 0 mm | - | - | - |
| 1778055984 | 18.89° C | 75% | 1009.6 hPa | 0 mm | - | - | - |
| 1778055084 | 18.89° C | 74% | 1009.7 hPa | 0 mm | - | - | - |
| 1778054183 | 19.44° C | 73% | 1009.8 hPa | 0 mm | - | - | - |
| 1778053283 | 20° C | 72% | 1010 hPa | 0 mm | - | - | - |
| 1778052385 | 20° C | 71% | 1010 hPa | 0 mm | - | - | - |
| 1778051484 | 20° C | 71% | 1010 hPa | 0 mm | - | - | - |
| 1778050584 | 20° C | 71% | 1009.9 hPa | 0 mm | - | - | - |
| 1778049685 | 20.56° C | 71% | 1010 hPa | 0 mm | - | - | - |
| 1778048783 | 20.56° C | 70% | 1010 hPa | 0 mm | - | - | - |
* Rain latest hour (hover to see other rain measurements)
** Current wind speed in m/s (hover to see current wind gust speed)